W7KKE-3 Weather Reports


time (UTC)temp
F
wind
direction
speed
knots
gust
knots
rain 1hr
in
rain 24hr
in
rain mn
in
humidity
%
barometer
mb
20260901231326 62 175 7.0 17.4 0.00 0.04 0.04 85 1008.2
20260901225825 63 172 7.0 13.9 0.00 0.04 0.04 83 1008.3
20260901225325 64 190 5.2 13.9 0.00 0.04 0.04 83 1008.3
20260901224825 64 158 6.1 13.9 0.00 0.04 0.04 84 1008.2
20260901224326 64 252 6.1 13.0 0.00 0.04 0.04 84 1008.2
20260901223825 64 201 6.1 12.2 0.00 0.04 0.04 84 1008.3
20260901223325 63 180 7.0 11.3 0.00 0.04 0.04 84 1008.2
20260901222825 63 190 7.0 9.6 0.00 0.04 0.04 84 1008.3
20260901222325 64 226 4.3 9.6 0.00 0.04 0.04 84 1008.4
20260901221825 64 221 4.3 8.7 0.00 0.04 0.04 84 1008.4
20260901221326 64 246 3.5 8.7 0.00 0.04 0.04 84 1008.4
20260901220826 64 229 4.3 7.0 0.00 0.04 0.04 84 1008.4
20260901220325 65 257 3.5 7.0 0.00 0.04 0.04 84 1008.4
20260901215325 64 190 4.3 10.4 0.00 0.04 0.04 85 1008.4
20260901214825 63 200 5.2 10.4 0.00 0.04 0.04 85 1008.3
20260901214326 63 154 7.0 10.4 0.00 0.04 0.04 85 1008.3
20260901213825 63 180 3.5 13.0 0.00 0.04 0.04 85 1008.3
20260901213325 63 189 6.1 13.0 0.00 0.04 0.04 84 1008.2
20260901212825 63 247 7.0 13.0 0.00 0.04 0.04 84 1008.2
20260901212325 63 232 7.8 13.0 0.00 0.04 0.04 84 1008.2
20260901211825 63 239 6.1 13.9 0.00 0.04 0.04 85 1008.2
20260901211326 63 190 4.3 13.9 0.00 0.04 0.04 85 1008.2
20260901210825 63 193 4.3 13.9 0.00 0.04 0.04 85 1008.2
20260901210325 63 207 7.8 10.4 0.00 0.04 0.04 85 1008.2
20260901205825 63 168 7.0 11.3 0.00 0.04 0.04 85 1008.2
20260901205325 62 225 6.1 11.3 0.00 0.04 0.04 86 1008.2
20260901204825 62 184 2.6 11.3 0.00 0.04 0.04 86 1008.1
20260901204326 62 239 5.2 11.3 0.00 0.04 0.04 85 1008.1
20260901203826 62 247 6.1 11.3 0.00 0.04 0.04 86 1008.2
20260901203326 62 187 6.1 10.4 0.00 0.04 0.04 85 1008.1
20260901202825 62 214 2.6 10.4 0.00 0.04 0.04 86 1008.2
20260901202325 62 170 5.2 10.4 0.00 0.04 0.04 86 1008.3
20260901201825 62 187 3.5 9.6 0.00 0.04 0.04 86 1008.3
20260901201326 62 197 4.3 9.6 0.00 0.04 0.04 85 1008.4
20260901200825 62 274 3.5 7.8 0.00 0.04 0.04 86 1008.4
20260901200325 62 211 3.5 7.8 0.00 0.04 0.04 86 1008.3
20260901195825 62 194 2.6 11.3 0.00 0.04 0.04 85 1008.3
20260901195325 63 211 4.3 11.3 0.00 0.04 0.04 85 1008.3
20260901194826 63 196 3.5 11.3 0.00 0.04 0.04 85 1008.3
20260901194326 63 183 3.5 8.7 0.00 0.04 0.04 85 1008.3
20260901193825 63 203 3.5 10.4 0.00 0.04 0.04 86 1008.4
20260901193325 63 232 1.7 10.4 0.00 0.04 0.04 86 1008.3
20260901192825 63 163 2.6 10.4 0.00 0.04 0.04 86 1008.3
20260901192325 63 158 5.2 9.6 0.00 0.04 0.04 86 1008.3
20260901191825 62 208 3.5 9.6 0.00 0.04 0.04 87 1008.3
20260901191326 62 239 5.2 9.6 0.00 0.04 0.04 86 1008.3
20260901190827 62 204 2.6 14.8 0.00 0.04 0.04 87 1008.4
20260901190325 62 193 6.1 14.8 0.00 0.04 0.04 87 1008.3
20260901185825 62 204 6.1 14.8 0.00 0.04 0.04 86 1008.3
20260901185325 62 212 7.0 13.9 0.00 0.04 0.04 86 1008.4
20260901184825 62 205 7.0 12.2 0.00 0.04 0.04 87 1008.3
20260901184326 62 144 6.1 12.2 0.00 0.04 0.04 87 1008.3
20260901183825 62 180 4.3 12.2 0.00 0.04 0.04 87 1008.4
20260901183325 61 194 4.3 11.3 0.00 0.04 0.04 88 1008.3
20260901182825 61 169 5.2 11.3 0.00 0.04 0.04 87 1008.3
20260901182325 61 203 5.2 11.3 0.00 0.04 0.04 88 1008.2
20260901181825 61 194 7.0 9.6 0.00 0.04 0.04 88 1008.2
20260901181328 62 138 4.3 9.6 0.00 0.04 0.04 88 1008.2
20260901180825 62 180 4.3 9.6 0.00 0.04 0.04 88 1008.2
20260901180325 62 257 3.5 9.6 0.00 0.04 0.04 88 1008.2
20260901175826 62 190 4.3 9.6 0.00 0.04 0.04 88 1008.2
20260901175325 62 225 3.5 9.6 0.00 0.04 0.04 88 1008.3
20260901174825 62 253 2.6 8.7 0.00 0.04 0.04 88 1008.2
20260901174326 62 236 4.3 6.1 0.00 0.04 0.04 88 1008.2
20260901173825 63 249 2.6 7.8 0.00 0.04 0.04 88 1008.1
20260901173418 63 235 1.7 7.8 0.00 0.04 0.04 88 1008.0
20260901173325 63 235 1.7 7.8 0.00 0.04 0.04 88 1008.0
20260901172826 64 246 1.7 7.8 0.00 0.04 0.04 88 1008.0
20260901172325 64 190 1.7 8.7 0.00 0.04 0.04 89 1007.9
20260901171825 64 207 2.6 8.7 0.00 0.04 0.04 90 1007.8
20260901171326 63 203 1.7 8.7 0.00 0.04 0.04 90 1007.8
20260901170825 63 214 5.2 6.1 0.00 0.04 0.04 90 1007.8
20260901170325 63 191 3.5 5.2 0.00 0.04 0.04 90 1007.8
20260901165826 62 196 0.9 4.3 0.00 0.04 0.04 90 1007.8
20260901165325 62 201 0.9 4.3 0.00 0.04 0.04 90 1007.8
20260901164825 62 222 2.6 4.3 0.00 0.04 0.04 90 1007.8
20260901164326 61 194 0.0 3.5 0.00 0.04 0.04 90 1007.9
20260901163825 61 204 0.9 3.5 0.00 0.04 0.04 89 1007.9
20260901163325 61 162 0.9 2.6 0.00 0.04 0.04 90 1008.0
20260901162826 61 0 0.9 1.7 0.01 0.04 0.04 90 1007.9
20260901162325 61 156 0.0 1.7 0.01 0.04 0.04 90 1008.0
20260901161825 61 187 0.0 0.9 0.01 0.04 0.04 90 1008.0
20260901161326 61 196 0.0 0.0 0.01 0.04 0.04 90 1008.0
20260901160825 61 211 0.0 7.0 0.02 0.04 0.04 90 1008.0
20260901160325 61 196 0.0 7.0 0.02 0.04 0.04 90 1008.0
20260901155826 61 201 3.5 7.0 0.03 0.04 0.04 89 1007.9
20260901155325 61 194 2.6 2.6 0.03 0.04 0.04 89 1007.9
20260901154825 61 0 0.0 0.0 0.03 0.04 0.04 89 1008.0
20260901154326 60 0 0.0 0.0 0.03 0.04 0.04 89 1008.0
20260901153825 60 210 0.0 5.2 0.03 0.04 0.04 89 1008.0
20260901153325 60 246 0.0 5.2 0.03 0.04 0.04 89 1008.0
20260901152827 60 193 0.9 5.2 0.02 0.04 0.04 89 1007.9
20260901152325 60 229 3.5 4.3 0.02 0.03 0.03 89 1008.0
20260901151825 60 217 0.9 4.3 0.02 0.03 0.03 89 1008.0
20260901151326 60 222 1.7 4.3 0.02 0.03 0.03 89 1008.0
20260901150825 60 233 0.9 3.5 0.01 0.03 0.03 89 1008.0
20260901150325 60 249 1.7 1.7 0.01 0.02 0.02 89 1007.9
20260901145825 60 218 0.0 2.6 0.00 0.02 0.02 89 1007.9
20260901144825 60 81 0.0 2.6 0.00 0.01 0.01 89 1007.9
20260901144326 60 92 1.7 2.6 0.00 0.01 0.01 89 1007.8
20260901143825 60 93 0.0 2.6 0.00 0.01 0.01 89 1007.8
20260901143325 60 79 0.9 3.5 0.00 0.01 0.01 89 1007.8
20260901142826 60 89 0.9 3.5 0.00 0.01 0.01 89 1007.8
20260901142325 60 93 0.0 3.5 0.00 0.01 0.01 89 1007.7
20260901141825 60 92 2.6 2.6 0.01 0.01 0.01 89 1007.6
20260901141326 60 82 0.0 2.6 0.01 0.01 0.01 89 1007.6
20260901140325 60 85 0.9 2.6 0.01 0.01 0.01 89 1007.5
20260901135826 60 98 0.0 2.6 0.01 0.01 0.01 89 1007.5
20260901135325 60 131 0.0 2.6 0.01 0.01 0.01 89 1007.4
20260901134825 60 127 0.0 0.9 0.01 0.01 0.01 89 1007.4
20260901134326 60 106 0.9 0.9 0.01 0.01 0.01 89 1007.4
20260901133825 60 341 0.0 4.3 0.01 0.01 0.01 89 1007.4
20260901133325 60 57 0.0 4.3 0.01 0.01 0.01 89 1007.4
20260901132826 60 131 0.0 4.3 0.01 0.01 0.01 89 1007.3
20260901132325 60 100 1.7 3.5 0.01 0.01 0.01 88 1007.3
20260901131825 60 169 0.9 2.6 0.00 0.01 0.01 88 1007.3
20260901131326 60 208 0.9 3.5 0.00 0.01 0.01 88 1007.2
20260901130825 60 187 0.0 3.5 0.00 0.00 0.00 88 1007.2
20260901130325 60 200 0.0 3.5 0.00 0.00 0.00 88 1007.3
20260901125825 60 135 0.9 2.6 0.00 0.00 0.00 88 1007.4
20260901125325 60 163 0.0 1.7 0.00 0.00 0.00 88 1007.4
20260901124825 60 194 0.9 0.9 0.00 0.00 0.00 88 1007.3
20260901124326 60 109 0.0 0.9 0.00 0.00 0.00 88 1007.3
20260901123825 60 0 0.0 3.5 0.00 0.00 0.00 88 1007.3
20260901123325 60 257 0.0 3.5 0.00 0.00 0.00 88 1007.3
20260901122825 60 232 0.9 3.5 0.00 0.00 0.00 88 1007.2
20260901122325 60 78 0.0 0.9 0.00 0.00 0.00 88 1007.2
20260901121825 60 57 0.0 3.5 0.00 0.00 0.00 88 1007.2
20260901121326 60 155 0.0 3.5 0.00 0.00 0.00 88 1007.4
20260901120825 60 156 0.9 3.5 0.00 0.00 0.00 88 1007.4
20260901120325 60 196 0.9 7.0 0.00 0.00 0.00 88 1007.3
20260901115826 60 177 3.5 7.0 0.00 0.00 0.00 88 1007.4
20260901115325 60 222 0.0 7.0 0.00 0.00 0.00 88 1007.4
20260901114825 60 207 2.6 7.0 0.00 0.00 0.00 88 1007.4
20260901114326 60 201 1.7 8.7 0.00 0.00 0.00 88 1007.4
20260901113825 60 194 1.7 8.7 0.00 0.00 0.00 88 1007.4
20260901113326 60 194 2.6 8.7 0.00 0.00 0.00 88 1007.5
20260901112826 60 175 5.2 6.1 0.00 0.00 0.00 87 1007.5
20260901111825 60 211 4.3 4.3 0.00 0.00 0.00 88 1007.5
20260901111326 60 197 0.0 3.5 0.00 0.00 0.00 87 1007.5
20260901110825 60 247 0.0 0.9 0.00 0.00 0.00 87 1007.5
20260901110325 60 0 0.0 0.0 0.00 0.00 0.00 87 1007.5
20260901105825 60 0 0.0 0.0 0.00 0.00 0.00 87 1007.5
20260901105325 60 0 0.0 0.0 0.00 0.00 0.00 87 1007.5
20260901104826 60 0 0.0 0.0 0.00 0.00 0.00 87 1007.5
20260901104326 60 0 0.0 0.0 0.00 0.00 0.00 87 1007.5
20260901103825 60 0 0.0 0.0 0.00 0.00 0.00 87 1007.5
20260901103325 60 0 0.0 1.7 0.00 0.00 0.00 87 1007.5
20260901102826 60 0 0.0 1.7 0.00 0.00 0.00 87 1007.4
20260901102325 60 210 0.0 1.7 0.00 0.00 0.00 87 1007.4
20260901101326 60 0 0.0 0.0 0.00 0.00 0.00 87 1007.4
20260901100825 60 0 0.0 2.6 0.00 0.00 0.00 87 1007.4
20260901100325 60 197 0.0 2.6 0.00 0.00 0.00 87 1007.4
20260901095826 60 201 0.0 2.6 0.00 0.00 0.00 87 1007.4
20260901095325 60 126 0.0 2.6 0.00 0.00 0.00 87 1007.4
20260901094825 60 201 0.0 6.1 0.00 0.00 0.00 87 1007.5
20260901094326 60 200 0.0 6.1 0.00 0.00 0.00 87 1007.4
20260901093825 60 179 2.6 6.1 0.00 0.00 0.00 87 1007.5
20260901093325 60 210 0.0 7.0 0.00 0.00 0.00 87 1007.4
20260901092826 60 210 1.7 7.0 0.00 0.00 0.00 87 1007.4
20260901092325 60 210 0.9 7.0 0.00 0.00 0.00 87 1007.4
20260901091825 60 217 1.7 7.8 0.00 0.00 0.00 87 1007.5
20260901091326 60 205 3.5 7.8 0.00 0.00 0.00 87 1007.5
20260901090825 60 198 3.5 7.8 0.00 0.00 0.00 87 1007.5
20260901090325 60 201 5.2 5.2 0.00 0.00 0.00 87 1007.6
20260901085826 60 218 0.9 5.2 0.00 0.00 0.00 87 1007.6
20260901085325 60 208 3.5 3.5 0.00 0.00 0.00 87 1007.5
20260901084825 60 191 0.9 3.5 0.00 0.00 0.00 87 1007.5
20260901084326 60 201 0.9 3.5 0.00 0.00 0.00 87 1007.5
20260901083825 60 210 1.7 3.5 0.00 0.00 0.00 87 1007.5
20260901083325 60 175 0.9 6.1 0.00 0.00 0.00 87 1007.6
20260901082826 60 161 0.9 6.1 0.00 0.00 0.00 87 1007.6
20260901082325 60 201 0.9 6.1 0.00 0.00 0.00 86 1007.6
20260901081825 60 187 4.3 5.2 0.00 0.00 0.00 86 1007.7
20260901081326 60 196 1.7 7.8 0.00 0.00 0.00 86 1007.6
20260901080825 60 187 1.7 7.8 0.00 0.00 0.00 86 1007.6
20260901080325 60 187 3.5 7.8 0.00 0.00 0.00 86 1007.6
20260901075826 60 215 4.3 7.0 0.00 0.00 0.00 86 1007.6
20260901075325 60 189 1.7 7.0 0.00 0.00 0.00 86 1007.6
20260901074825 60 194 2.6 7.0 0.00 0.00 0.00 86 1007.7
20260901074326 60 189 3.5 8.7 0.00 0.00 0.00 86 1007.6
20260901073825 61 211 2.6 8.7 0.00 0.00 0.00 86 1007.5
20260901073325 61 196 2.6 8.7 0.00 0.00 0.00 86 1007.5
20260901072826 61 196 3.5 7.0 0.00 0.00 0.00 86 1007.5
20260901072325 61 205 5.2 9.6 0.00 0.00 0.00 86 1007.5
20260901071825 61 211 4.3 9.6 0.00 0.00 0.00 86 1007.5
20260901071326 60 189 4.3 9.6 0.00 0.00 0.00 86 1007.5
20260901070825 60 200 5.2 9.6 0.00 0.00 0.00 86 1007.5
20260901070325 60 187 3.5 9.6 0.00 0.00 0.00 86 1007.5
20260901065826 60 163 5.2 9.6 0.00 0.00 0.00 86 1007.5
20260901065325 60 180 3.5 8.7 0.00 0.00 0.00 86 1007.4
20260901064825 60 193 2.6 8.7 0.00 0.00 0.00 86 1007.4
20260901064326 60 186 4.3 8.7 0.00 0.00 0.00 86 1007.4
20260901063825 60 212 6.1 8.7 0.00 0.00 0.00 86 1007.4
20260901063325 61 201 3.5 7.0 0.00 0.00 0.00 86 1007.4
20260901062825 61 193 3.5 7.0 0.00 0.00 0.00 86 1007.4
20260901062325 61 177 3.5 7.0 0.00 0.00 0.00 85 1007.5
20260901061825 61 204 3.5 7.8 0.00 0.00 0.00 85 1007.5
20260901061326 60 204 1.7 7.8 0.00 0.00 0.00 85 1007.5
20260901060825 61 201 1.7 7.8 0.00 0.00 0.00 85 1007.6
20260901060325 61 205 1.7 7.8 0.00 0.00 0.00 85 1007.5
20260901055325 61 201 3.5 7.8 0.00 0.00 0.00 85 1007.5
20260901054825 61 189 4.3 7.0 0.00 0.00 0.00 85 1007.4
20260901054326 61 225 2.6 7.0 0.00 0.00 0.00 85 1007.4
20260901053826 61 221 2.6 6.1 0.00 0.00 0.00 84 1007.4
20260901053325 61 198 0.0 3.5 0.00 0.00 0.00 84 1007.5
20260901052826 61 225 0.0 3.5 0.00 0.00 0.00 84 1007.4
20260901052325 61 242 0.0 1.7 0.00 0.00 0.00 84 1007.5
20260901051825 61 295 0.0 1.7 0.00 0.00 0.00 84 1007.4
20260901051326 62 0 0.0 0.0 0.00 0.00 0.00 84 1007.4
20260901050825 62 0 0.0 0.0 0.00 0.00 0.00 84 1007.4
20260901050325 62 0 0.0 0.0 0.00 0.00 0.00 84 1007.4
20260901045826 62 0 0.0 0.0 0.00 0.00 0.00 84 1007.3
20260901045325 62 0 0.0 0.0 0.00 0.00 0.00 84 1007.3
20260901044825 62 0 0.0 0.0 0.00 0.00 0.00 84 1007.3
20260901044326 62 0 0.0 0.0 0.00 0.00 0.00 84 1007.3
20260901043825 62 0 0.0 0.0 0.00 0.00 0.00 84 1007.4
20260901043325 62 0 0.0 0.0 0.00 0.00 0.00 84 1007.4
20260901042825 62 0 0.0 1.7 0.00 0.00 0.00 84 1007.4
20260901042325 62 247 0.0 1.7 0.00 0.00 0.00 84 1007.4
20260901041825 62 235 0.0 1.7 0.00 0.00 0.00 83 1007.4
20260901041326 62 0 0.0 3.5 0.00 0.00 0.00 83 1007.4
20260901040825 62 257 0.0 3.5 0.00 0.00 0.00 83 1007.4
20260901040325 62 271 0.0 3.5 0.00 0.00 0.00 83 1007.3
20260901035826 62 0 0.0 0.0 0.00 0.00 0.00 83 1007.3
20260901035325 62 0 0.0 0.0 0.00 0.00 0.00 83 1007.2
20260901034825 62 0 0.0 0.0 0.00 0.00 0.00 83 1007.1
20260901034326 62 0 0.0 2.6 0.00 0.00 0.00 83 1007.1
20260901033825 62 0 0.0 2.6 0.00 0.00 0.00 83 1007.1
20260901033325 62 256 0.0 2.6 0.00 0.00 0.00 83 1007.0
20260901032826 62 329 2.6 5.2 0.00 0.00 0.00 83 1006.9
20260901032325 62 313 0.0 5.2 0.00 0.00 0.00 83 1006.8
20260901031825 62 7 0.9 5.2 0.00 0.00 0.00 83 1006.8
20260901031326 62 347 2.6 2.6 0.00 0.00 0.00 83 1006.7
20260901030826 63 0 0.0 0.0 0.00 0.00 0.00 83 1006.7
20260901030325 62 336 0.0 3.5 0.00 0.00 0.00 83 1006.7
20260901025826 62 317 0.0 3.5 0.00 0.00 0.00 83 1006.8
20260901025325 62 315 0.9 3.5 0.00 0.00 0.00 83 1006.8
20260901024825 62 7 1.7 2.6 0.00 0.00 0.00 83 1006.8
20260901024326 62 324 0.9 3.5 0.00 0.00 0.00 83 1006.8
20260901023825 62 344 0.9 3.5 0.00 0.00 0.00 83 1006.7
20260901023325 62 317 0.9 3.5 0.00 0.00 0.00 83 1006.6
20260901022826 62 327 1.7 7.8 0.00 0.00 0.00 83 1006.7
20260901022325 62 341 3.5 7.8 0.00 0.00 0.00 83 1006.6
20260901021828 62 330 5.2 7.8 0.00 0.00 0.00 83 1006.7
20260901021326 62 320 5.2 10.4 0.00 0.00 0.00 83 1006.6
20260901020825 62 333 6.1 10.4 0.00 0.00 0.00 83 1006.5
20260901020325 62 330 5.2 10.4 0.00 0.00 0.00 83 1006.6
20260901015826 62 315 7.0 9.6 0.00 0.00 0.00 82 1006.5
20260901015326 62 323 6.1 9.6 0.00 0.00 0.00 82 1006.4
20260901014825 63 313 7.0 11.3 0.00 0.00 0.00 82 1006.4
20260901014326 63 312 7.8 11.3 0.00 0.00 0.00 82 1006.2
20260901013825 63 324 5.2 11.3 0.00 0.00 0.00 82 1006.2
20260901013325 63 331 7.8 12.2 0.00 0.00 0.00 81 1006.2
20260901012826 63 326 7.0 12.2 0.00 0.00 0.00 81 1006.3
20260901012325 64 336 7.8 12.2 0.00 0.00 0.00 81 1006.2
20260901011825 64 326 5.2 8.7 0.00 0.00 0.00 81 1006.2
20260901011326 64 330 6.1 8.7 0.00 0.00 0.00 81 1006.3
20260901010918 64 302 3.5 7.8 0.00 0.00 0.00 81 1006.4
20260901010825 64 302 3.5 7.8 0.00 0.00 0.00 81 1006.4
20260901010325 64 305 5.2 7.8 0.00 0.00 0.00 80 1006.4
20260901005826 64 308 4.3 7.8 0.00 0.00 0.00 80 1006.5
20260901005325 65 317 5.2 7.8 0.00 0.00 0.00 80 1006.5
20260901004825 65 281 4.3 7.8 0.00 0.00 0.00 80 1006.5
20260901004326 65 295 5.2 7.8 0.00 0.00 0.00 79 1006.5
20260901003825 65 287 5.2 7.8 0.00 0.00 0.00 79 1006.5
20260901003325 66 287 6.1 7.8 0.00 0.00 0.00 79 1006.5
20260901002826 66 291 5.2 9.6 0.00 0.00 0.00 79 1006.5
20260901002325 66 277 6.1 9.6 0.00 0.00 0.00 79 1006.5
20260901001825 66 292 5.2 9.6 0.00 0.00 0.00 78 1006.4
20260901001326 66 301 5.2 9.6 0.00 0.00 0.00 78 1006.5
20260901000825 66 285 7.0 9.6 0.00 0.00 0.00 78 1006.5
20260901000325 66 285 6.1 9.6 0.00 0.00 0.00 78 1006.5
20260831235826 66 289 7.0 8.7 0.00 0.00 0.00 78 1006.5
20260831234825 67 292 5.2 8.7 0.00 0.00 0.00 78 1006.5
20260831233825 66 306 7.0 9.6 0.00 0.00 0.00 79 1006.4
20260831233325 66 287 6.1 9.6 0.00 0.00 0.00 79 1006.5
20260831232826 66 292 7.0 10.4 0.00 0.00 0.00 79 1006.4
20260831232325 66 317 7.0 10.4 0.00 0.00 0.00 78 1006.5
20260831231825 66 301 7.0 10.4 0.00 0.00 0.00 78 1006.5